Location: Coupvray
(48.8929°N, 2.7967°E)
Time: 09:35:24
(UTC+00:00)

Cosmos 1674 Rocket - Pass Details

Date: 14 July 2020
Orbit: 602 x 631 km, 82.5° (Epoch: 06 August)

Event Time Altitude Azimuth Distance (km) Brightness Sun altitude
Rises 02:40:41 0° 347° (NNW) 2,889 7.6 -10.4°
Reaches altitude 10° 02:42:57 10° 344° (NNW) 1,975 6.6 -10.2°
Maximum altitude 02:47:14 60° 265° (W) 696 3.6 -9.7°
Drops below altitude 10° 02:51:29 10° 185° (S) 1,946 5.6 -9.2°
Enters shadow 02:52:18 - 184° (S) 2,276 6.0 -9.2°
